Regional Weather Roundup
Issued by NWS

Home | Current Version | Previous Version | Graphics & Text | Print | Product List | Glossary On
Versions: 1 2 3 4 5 6 7 8 9 10 11 12 13 14 15 16 17 18 19 20 21 22 23 24 25 26 27 28 29 30 31 32 33 34 35 36 37 38 39 40 41 42 43 44 45 46 47 48 49 50
000
ASUS45 KCYS 241510
RWRWY

WYOMING REGIONAL WEATHER ROUNDUP
NATIONAL WEATHER SERVICE CHEYENNE WY
900 AM MDT WED AUG 24 2016

NOTE:  "FAIR" INDICATES FEW OR NO CLOUDS BELOW 12,000 FEET
WITH NO SIGNIFICANT WEATHER AND/OR OBSTRUCTIONS TO VISIBILITY.

WYZ001-241600-
YELLOWSTONE NATIONAL PARK

CITY           SKY/WX    TMP DP  RH WIND       PRES   REMARKS
LK YELLOWSTONE   N/A     47  35  63 CALM      30.35S
W YELLOWSTONE  NOT AVBL

$$
WYZ002>013-054>058-071-098>099-241600-
NORTHERN WYOMING

CITY           SKY/WX    TMP DP  RH WIND       PRES   REMARKS
JACKSON        SUNNY     39  25  56 CALM      30.29R SMOKE
CODY           FAIR      54  43  66 NE8       30.31R
GREYBULL       FAIR      58  40  51 E9        30.24R
WORLAND        FAIR      60  40  47 W10       30.26S
SHERIDAN       FAIR      59  44  57 NW7       30.26F
BUFFALO        FAIR      57  42  57 N16G25    30.29S
GILLETTE       FAIR      57  44  62 N12       30.26R
HULETT         FAIR      55  45  67 NW6       30.26R
NEWCASTLE      FAIR      57  39  51 NW13G18   30.24S

$$
WYZ014>020-022>026-101>103-241600-
CENTRAL WYOMING

CITY           SKY/WX    TMP DP  RH WIND       PRES   REMARKS
BIG PINEY      FAIR      46  19  34 NE6       30.30S
PINEDALE       FAIR      45  25  45 NW7       30.30F
DUBOIS         FAIR      46  21  36 NE3       30.33S
LANDER         FAIR      56  35  45 E3        30.28S
RIVERTON       FAIR      54  36  50 CALM      30.30R
CASPER         FAIR      56  38  50 E8        30.29S
DOUGLAS        FAIR      57  38  48 N6        30.28F

$$
WYZ021-027>030-104>119-241600-
SOUTHERN WYOMING

CITY           SKY/WX    TMP DP  RH WIND       PRES   REMARKS
EVANSTON       FAIR      56  23  27 S9        30.27S
FORT BRIDGER   FAIR      59  21  23 E3        30.30S
ROCK SPRINGS   FAIR      53  24  32 E10       30.27F
DIXON          FAIR      58  40  50 CALM      30.29S
RAWLINS        FAIR      55  25  31 E7        30.29S
SARATOGA       FAIR      54  30  40 N12G17    30.30S
LARAMIE        FAIR      58  28  32 N6        30.30S
CHEYENNE       CLOUDY    58  44  60 NE6       30.27R
TORRINGTON     FAIR      63  32  31 E13       30.21R
PINE BLUFFS    DRIZZLE   54  48  82 N5        30.27R

$$



USA.gov is the U.S. government's official web portal to all federal, state and local government web resources and services.